Location: Unspecified
(0.0000°N, 0.0000°E)
Time: 02:47:36
(UTC+00:00)

NADEZHDA 7 - Visible Passes

Search period start: 16 May 2026 00:00
Search period end: 26 May 2026 00:00
Orbit: 961 x 1017 km, 82.9° (Epoch: 15 May)

Date Brightness Start Highest point End Pass type
(mag) Time Alt. Az. Time Alt. Az. Time Alt. Az.
16 May 6.2 19:25:58 10° NNE 19:32:02 49° E 19:33:15 44° ESE visible
16 May 8.6 21:14:50 10° WNW 21:17:25 13° W 21:18:16 12° WSW visible
17 May 6.2 19:55:04 10° N 20:01:21 71° W 20:03:35 42° SSW visible
18 May 7.1 18:40:36 10° NE 18:45:22 22° E 18:48:57 14° SE visible
18 May 7.6 20:25:18 10° NW 20:30:42 30° W 20:33:59 19° SW visible
19 May 6.1 19:08:31 10° N 19:14:41 54° E 19:19:26 18° SSE visible
19 May 8.7 20:58:06 10° WNW 21:00:03 11° W 21:02:02 10° WSW visible
20 May 6.4 19:37:43 10° NNW 19:44:00 66° W 19:50:00 12° S visible
21 May 7.1 18:23:01 10° NE 18:28:00 24° E 18:33:02 10° SE visible
21 May 7.8 20:08:04 10° NW 20:13:20 28° W 20:18:41 10° SSW visible
22 May 6.1 18:51:05 10° N 18:57:19 58° E 19:03:37 10° SSE visible
22 May 8.9 20:41:44 10° W 20:42:42 10° W 20:43:40 10° WSW visible
23 May 6.5 19:20:23 10° NNW 19:26:39 61° W 19:32:59 10° S visible
24 May 8.0 19:50:52 10° NW 19:55:59 26° W 20:01:09 10° SSW visible
25 May 6.1 18:33:40 10° N 18:39:57 63° E 18:46:19 10° SSE visible
